Home   Weather   Paris   Past weeks
Flag for USA

Past Weather in Paris, Virginia, USA — Yesterday and Last 2 Weeks

Now
75 °F

Broken clouds.


Feels Like: 78 °F
Forecast: 78 / 59 °F
Wind: 15 mph from North

Location: Reagan National Airport

Current Time: Apr 8, 2020 at 6:52:17 pm

Latest Report: Apr 8, 2020 at 5:52 pm


Visibility: 10 mi

Pressure: 29.59 "Hg

Humidity: 43%

Dew Point: 51 °F

Location of ParisLocation

Past Weather in Paris — Graph

°F

Paris Temperature Yesterday

Maximum temperature yesterday: 71 °F (at 1:52 pm)
Minimum temperature yesterday: 54 °F (at 1:52 am)
Average temperature yesterday: 61 °F

High & Low Weather Summary for the Past Weeks

 TemperatureHumidityPressure
High78 °F (Apr 8, 4:52 pm)100% (Mar 30, 12:36 am)30.12 "Hg (Mar 30, 12:36 am)
Low42 °F (Apr 1, 5:52 am)20% (Apr 6, 5:52 pm)29.56 "Hg (Apr 8, 3:52 am)
Average55 °F71%29.93 "Hg
* Reported Mar 24 4:52 pm — Apr 8 4:52 pm, Paris. Weather by CustomWeather, © 2020

Note: Actual official high and low records may vary slightly from our data, if they occured in-between our weather recording intervals... More about our weather records

Paris Weather History for the Previous 24 Hours

Scroll right to see more
 ConditionsComfort  
Time TempWeatherWind HumidityBarometerVisibility
4:52 pm
Wed, Apr 8
78 °FScattered clouds.18 mph37%29.58 "Hg10 mi
3:52 pm77 °FBroken clouds.16 mph47%29.57 "Hg10 mi
2:52 pm77 °FScattered clouds.12 mph48%29.58 "Hg10 mi
1:52 pm77 °FScattered clouds.15 mph48%29.60 "Hg10 mi
12:52 pm74 °FScattered clouds.17 mph52%29.59 "Hg10 mi
11:52 am73 °FPassing clouds.6 mph55%29.61 "Hg10 mi
10:52 am66 °FScattered clouds.6 mph70%29.62 "Hg10 mi
9:52 am62 °FMore clouds than sun.5 mph80%29.62 "Hg10 mi
8:52 am60 °FMore clouds than sun.5 mph83%29.61 "Hg10 mi
7:52 am59 °FScattered clouds.7 mph84%29.59 "Hg10 mi
6:52 am58 °FLight rain. Overcast.5 mph87%29.62 "Hg10 mi
5:52 am58 °FLight rain. Mostly cloudy.7 mph87%29.62 "Hg10 mi
4:52 am60 °FMostly cloudy.14 mph80%29.62 "Hg10 mi
3:52 am56 °FPassing clouds.6 mph97%29.56 "Hg9 mi
2:52 am57 °FPassing clouds.8 mph96%29.57 "Hg9 mi
1:52 am57 °FPartly cloudy.7 mph96%29.61 "Hg10 mi
12:52 am58 °FPassing clouds.6 mph93%29.66 "Hg10 mi
11:52 pm
Tue, Apr 7
59 °FPassing clouds.8 mph90%29.69 "Hg10 mi
10:52 pm60 °FPassing clouds.7 mph93%29.72 "Hg10 mi
9:52 pm61 °FPassing clouds.8 mph90%29.75 "Hg10 mi
8:52 pm61 °FPassing clouds.7 mph90%29.76 "Hg10 mi
7:52 pm62 °FPartly cloudy.7 mph86%29.78 "Hg10 mi
6:52 pm63 °FBroken clouds.3 mph81%29.78 "Hg10 mi
Weather by CustomWeather, © 2020

See weather overview

Advertising